This is the latest recevied weather packets stored in our database for station/object AB8KN-2. If no packets are shown the sender has not sent any weather packets the latest 10 day(s).
| Time | Temp. | Humidity | Pressure | Rain* | Wind** | Luminosity | Snow |
|---|---|---|---|---|---|---|---|
| 1777809018 | 1.67° C | 84% | 1018.5 hPa | 0 mm | - | 48 W/m² | - |
| 1777807836 | 0.56° C | 91% | 1017.9 hPa | 0 mm | - | 33 W/m² | - |
| 1777806017 | -0.56° C | 92% | 1017.3 hPa | 0 mm | - | 17 W/m² | - |
| 1777802438 | -0.56° C | 90% | 1016.4 hPa | 0 mm | - | 0 W/m² | - |
| 1777800618 | 0° C | 88% | 1016.4 hPa | 0 mm | - | 0 W/m² | - |
| 1777798835 | 0° C | 87% | 1016.3 hPa | 0 mm | - | 0 W/m² | - |
| 1777798216 | 0.56° C | 86% | 1016.3 hPa | 0 mm | - | 0 W/m² | - |
| 1777794616 | 1.11° C | 83% | 1016.3 hPa | 0 mm | - | 0 W/m² | - |
| 1777793417 | 1.11° C | 83% | 1016.3 hPa | 0 mm | - | 0 W/m² | - |
| 1777789818 | 1.67° C | 82% | 1016.4 hPa | 0 mm | - | 0 W/m² | - |
| 1777786815 | 1.67° C | 83% | 1016.6 hPa | 0 mm | - | 0 W/m² | - |
| 1777777218 | 3.33° C | 76% | 1016.8 hPa | 0 mm | - | 0 W/m² | - |
| 1777776015 | 3.33° C | 72% | 1016.6 hPa | 0 mm | - | 0 W/m² | - |
| 1777773616 | 5.56° C | 63% | 1016.4 hPa | 0 mm | - | 0 W/m² | - |
| 1777767018 | 7.78° C | 51% | 1016.6 hPa | 0 mm | - | 8 W/m² | - |
| 1777764616 | 7.78° C | 48% | 1016.5 hPa | 0 mm | - | 35 W/m² | - |
| 1777761016 | 8.33° C | 47% | 1016.4 hPa | 0 mm | - | 78 W/m² | - |
| 1777758018 | 8.89° C | 44% | 1016.4 hPa | 0 mm | - | 163 W/m² | - |
| 1777756218 | 8.89° C | 44% | 1016.4 hPa | 0 mm | - | 260 W/m² | - |
| 1777755035 | 9.44° C | 44% | 1016.3 hPa | 0 mm | - | 243 W/m² | - |
| 1777748417 | 8.89° C | 48% | 1017 hPa | 0 mm | - | 391 W/m² | - |
| 1777737017 | 8.89° C | 52% | 1018.3 hPa | 0 mm | - | 833 W/m² | - |
| 1777734018 | 7.78° C | 59% | 1017.6 hPa | 0 mm | - | 301 W/m² | - |
| 1777730416 | 7.22° C | 66% | 1018.2 hPa | 0 mm | - | 571 W/m² | - |
| 1777725617 | 4.44° C | 74% | 1017.8 hPa | 0 mm | - | 290 W/m² | - |
* Rain latest hour (hover to see other rain measurements)
** Current wind speed in m/s (hover to see current wind gust speed)